Time,TemperatureF,DewpointF,PressureIn,WindDirection,WindDirectionDegrees,WindSpeedMPH,WindSpeedGustMPH,Humidity,HourlyPrecipIn,Conditions,Clouds,dailyrainin,SoftwareType,DateUTC
2013-07-01 00:02:00,67.0,50.0,30.14,East,94,20.0,34.0,54,0.00,,,-99.99,,2013-07-01 06:02:00,
2013-07-01 00:12:00,67.0,49.0,30.14,East,99,22.0,31.0,52,0.00,,,-99.99,,2013-07-01 06:12:00,
2013-07-01 00:24:00,68.0,49.0,30.15,ESE,113,29.0,35.0,51,0.00,,,-99.99,,2013-07-01 06:24:00,
2013-07-01 00:33:00,67.0,49.0,30.15,East,90,30.0,35.0,52,0.00,,,-99.99,,2013-07-01 06:33:00,
2013-07-01 00:43:00,68.0,48.0,30.16,ESE,116,18.0,33.0,49,0.00,,,-99.99,,2013-07-01 06:43:00,
2013-07-01 00:53:00,68.0,48.0,30.18,ESE,123,20.0,35.0,49,0.00,,,-99.99,,2013-07-01 06:53:00,
2013-07-01 01:01:00,68.0,49.0,30.18,ESE,108,16.0,30.0,51,0.01,,,-99.99,,2013-07-01 07:01:00,
2013-07-01 01:11:00,67.0,52.0,30.18,ESE,120,12.0,24.0,58,0.03,,,-99.99,,2013-07-01 07:11:00,
2013-07-01 01:22:00,64.0,52.0,30.15,East,99,13.0,26.0,65,0.04,,,-99.99,,2013-07-01 07:22:00,
2013-07-01 01:33:00,64.0,52.0,30.15,SE,143,5.0,15.0,64,0.04,,,-99.99,,2013-07-01 07:33:00,
2013-07-01 01:43:00,65.0,51.0,30.16,SE,142,8.0,15.0,61,0.04,,,-99.99,,2013-07-01 07:43:00,
2013-07-01 01:53:00,66.0,51.0,30.15,South,180,10.0,15.0,59,0.04,,,-99.99,,2013-07-01 07:53:00,
2013-07-01 02:01:00,66.0,52.0,30.14,SSE,164,0.0,0.0,61,0.04,,,-99.99,,2013-07-01 08:01:00,
2013-07-01 02:11:00,65.0,53.0,30.15,North,358,4.0,7.0,65,0.04,,,-99.99,,2013-07-01 08:11:00,
2013-07-01 02:22:00,65.0,50.0,30.15,North,355,6.0,6.0,58,0.04,,,-99.99,,2013-07-01 08:22:00,
2013-07-01 02:33:00,65.0,53.0,30.15,North,358,8.0,9.0,65,0.04,,,-99.99,,2013-07-01 08:33:00,
2013-07-01 02:42:00,64.0,54.0,30.16,NNE,29,6.0,8.0,71,0.04,,,-99.99,,2013-07-01 08:42:00,
2013-07-01 02:52:00,64.0,55.0,30.16,NNE,25,5.0,8.0,73,0.04,,,-99.99,,2013-07-01 08:52:00,
2013-07-01 03:02:00,63.0,54.0,30.15,NNE,16,5.0,7.0,73,0.04,,,-99.99,,2013-07-01 09:02:00,
2013-07-01 03:11:00,63.0,54.0,30.15,NNE,15,2.0,7.0,73,0.04,,,-99.99,,2013-07-01 09:11:00,
2013-07-01 03:22:00,63.0,55.0,30.16,ENE,78,6.0,7.0,76,0.04,,,-99.99,,2013-07-01 09:22:00,
2013-07-01 03:34:00,63.0,54.0,30.16,ENE,60,5.0,7.0,73,0.04,,,-99.99,,2013-07-01 09:34:00,
2013-07-01 03:43:00,63.0,54.0,30.18,NNE,32,5.0,6.0,73,0.04,,,-99.99,,2013-07-01 09:43:00,
2013-07-01 03:53:00,63.0,55.0,30.19,ESE,113,6.0,6.0,74,0.04,,,-99.99,,2013-07-01 09:53:00,
2013-07-01 04:03:00,62.0,54.0,30.19,ENE,78,6.0,8.0,76,0.04,,,-99.99,,2013-07-01 10:03:00,
2013-07-01 04:11:00,62.0,54.0,30.19,NNE,19,6.0,8.0,74,0.04,,,-99.99,,2013-07-01 10:11:00,
2013-07-01 04:22:00,63.0,53.0,30.19,NNW,348,7.0,9.0,71,0.04,,,-99.99,,2013-07-01 10:22:00,
2013-07-01 04:33:00,63.0,53.0,30.19,NW,320,2.0,8.0,71,0.04,,,-99.99,,2013-07-01 10:33:00,
2013-07-01 04:42:00,63.0,53.0,30.19,NW,319,3.0,4.0,69,0.04,,,-99.99,,2013-07-01 10:42:00,
2013-07-01 04:52:00,63.0,53.0,30.19,WNW,298,0.0,5.0,69,0.04,,,-99.99,,2013-07-01 10:52:00,
2013-07-01 05:02:00,63.0,54.0,30.19,North,0,2.0,3.0,72,0.04,,,-99.99,,2013-07-01 11:02:00,
2013-07-01 05:11:00,63.0,54.0,30.19,NNW,344,0.0,3.0,72,0.04,,,-99.99,,2013-07-01 11:11:00,
2013-07-01 05:22:00,62.0,53.0,30.20,NNW,344,0.0,0.0,73,0.04,,,-99.99,,2013-07-01 11:22:00,
2013-07-01 05:33:00,62.0,54.0,30.20,SE,130,2.0,5.0,76,0.04,,,-99.99,,2013-07-01 11:33:00,
2013-07-01 05:43:00,62.0,54.0,30.20,SE,127,1.0,5.0,75,0.04,,,-99.99,,2013-07-01 11:43:00,
2013-07-01 05:52:00,62.0,54.0,30.21,NE,49,0.0,4.0,76,0.04,,,-99.99,,2013-07-01 11:52:00,
2013-07-01 06:01:00,61.0,53.0,30.21,NE,49,0.0,0.0,76,0.04,,,-99.99,,2013-07-01 12:01:00,
2013-07-01 06:11:00,61.0,53.0,30.22,NE,49,0.0,0.0,76,0.04,,,-99.99,,2013-07-01 12:11:00,
2013-07-01 06:22:00,61.0,54.0,30.22,WNW,282,0.0,0.0,77,0.04,,,-99.99,,2013-07-01 12:22:00,
2013-07-01 06:33:00,61.0,54.0,30.22,WNW,282,0.0,0.0,78,0.04,,,-99.99,,2013-07-01 12:33:00,
2013-07-01 06:43:00,61.0,54.0,30.23,North,4,0.0,2.0,79,0.04,,,-99.99,,2013-07-01 12:43:00,
2013-07-01 06:53:00,61.0,54.0,30.23,North,4,0.0,2.0,79,0.04,,,-99.99,,2013-07-01 12:53:00,
2013-07-01 07:01:00,61.0,54.0,30.23,NNW,345,1.0,2.0,79,0.04,,,-99.99,,2013-07-01 13:01:00,
2013-07-01 07:12:00,61.0,54.0,30.23,NNE,18,0.0,2.0,78,0.04,,,-99.99,,2013-07-01 13:12:00,
2013-07-01 07:23:00,62.0,55.0,30.23,NNE,18,0.0,0.0,77,0.04,,,-99.99,,2013-07-01 13:23:00,
2013-07-01 07:33:00,62.0,54.0,30.23,NNW,330,3.0,3.0,75,0.04,,,-99.99,,2013-07-01 13:33:00,
2013-07-01 07:43:00,62.0,54.0,30.23,West,281,2.0,5.0,74,0.04,,,-99.99,,2013-07-01 13:43:00,
2013-07-01 07:53:00,63.0,53.0,30.23,WNW,296,1.0,6.0,71,0.04,,,-99.99,,2013-07-01 13:53:00,
2013-07-01 08:01:00,63.0,53.0,30.23,WNW,296,1.0,6.0,71,0.04,,,-99.99,,2013-07-01 14:01:00,
2013-07-01 08:11:00,64.0,53.0,30.23,NNE,18,0.0,5.0,67,0.04,,,-99.99,,2013-07-01 14:11:00,
2013-07-01 08:22:00,65.0,53.0,30.23,NNW,343,4.0,4.0,66,0.04,,,-99.99,,2013-07-01 14:22:00,
2013-07-01 08:34:00,65.0,53.0,30.22,NW,317,0.0,3.0,66,0.04,,,-99.99,,2013-07-01 14:34:00,
2013-07-01 08:43:00,65.0,51.0,30.22,NW,317,0.0,0.0,61,0.04,,,-99.99,,2013-07-01 14:43:00,
2013-07-01 08:52:00,66.0,53.0,30.22,SSW,210,0.0,6.0,62,0.04,,,-99.99,,2013-07-01 14:52:00,
2013-07-01 09:02:00,66.0,51.0,30.22,West,265,3.0,6.0,58,0.04,,,-99.99,,2013-07-01 15:02:00,
2013-07-01 09:11:00,67.0,52.0,30.22,West,268,3.0,9.0,59,0.04,,,-99.99,,2013-07-01 15:11:00,
2013-07-01 09:34:00,68.0,52.0,30.22,SW,236,4.0,6.0,56,0.04,,,-99.99,,2013-07-01 15:34:00,
2013-07-01 09:43:00,68.0,51.0,30.21,WSW,251,1.0,7.0,55,0.04,,,-99.99,,2013-07-01 15:43:00,
2013-07-01 10:01:00,69.0,52.0,30.20,NNW,341,6.0,7.0,54,0.04,,,-99.99,,2013-07-01 16:01:00,
2013-07-01 10:11:00,69.0,50.0,30.20,WNW,300,4.0,6.0,51,0.04,,,-99.99,,2013-07-01 16:11:00,
2013-07-01 10:22:00,70.0,52.0,30.19,WNW,286,6.0,8.0,52,0.04,,,-99.99,,2013-07-01 16:22:00,
2013-07-01 10:33:00,70.0,50.0,30.18,West,277,7.0,7.0,50,0.04,,,-99.99,,2013-07-01 16:33:00,
2013-07-01 10:44:00,70.0,49.0,30.18,NW,313,6.0,7.0,47,0.04,,,-99.99,,2013-07-01 16:44:00,
2013-07-01 10:53:00,71.0,50.0,30.17,WNW,286,3.0,8.0,48,0.04,,,-99.99,,2013-07-01 16:53:00,
2013-07-01 11:02:00,72.0,50.0,30.16,NNW,327,0.0,6.0,46,0.04,,,-99.99,,2013-07-01 17:02:00,
2013-07-01 11:12:00,73.0,50.0,30.16,SSE,157,2.0,5.0,45,0.04,,,-99.99,,2013-07-01 17:12:00,
2013-07-01 11:23:00,73.0,50.0,30.16,West,264,2.0,6.0,44,0.04,,,-99.99,,2013-07-01 17:23:00,
2013-07-01 11:33:00,73.0,50.0,30.15,WNW,295,6.0,9.0,44,0.04,,,-99.99,,2013-07-01 17:33:00,
2013-07-01 11:43:00,73.0,49.0,30.15,SW,226,3.0,8.0,42,0.04,,,-99.99,,2013-07-01 17:43:00,
2013-07-01 11:53:00,74.0,49.0,30.14,WNW,292,7.0,7.0,41,0.04,,,-99.99,,2013-07-01 17:53:00,
2013-07-01 12:02:00,74.0,49.0,30.13,NW,313,6.0,9.0,41,0.04,,,-99.99,,2013-07-01 18:02:00,
2013-07-01 12:11:00,74.0,47.0,30.13,SSW,209,7.0,8.0,39,0.04,,,-99.99,,2013-07-01 18:11:00,
2013-07-01 12:22:00,75.0,48.0,30.13,West,265,6.0,8.0,39,0.04,,,-99.99,,2013-07-01 18:22:00,
2013-07-01 12:33:00,76.0,48.0,30.12,WNW,284,5.0,7.0,37,0.04,,,-99.99,,2013-07-01 18:33:00,
2013-07-01 12:43:00,76.0,49.0,30.12,WNW,286,6.0,9.0,38,0.04,,,-99.99,,2013-07-01 18:43:00,
2013-07-01 12:52:00,77.0,48.0,30.11,WNW,282,5.0,12.0,36,0.04,,,-99.99,,2013-07-01 18:52:00,
2013-07-01 13:01:00,77.0,47.0,30.10,West,264,7.0,8.0,35,0.04,,,-99.99,,2013-07-01 19:01:00,
2013-07-01 13:11:00,77.0,47.0,30.10,NNW,344,1.0,8.0,35,0.04,,,-99.99,,2013-07-01 19:11:00,
2013-07-01 13:21:00,78.0,47.0,30.09,West,261,7.0,7.0,33,0.04,,,-99.99,,2013-07-01 19:21:00,
2013-07-01 13:33:00,79.0,47.0,30.08,WSW,248,7.0,9.0,32,0.04,,,-99.99,,2013-07-01 19:33:00,
2013-07-01 13:44:00,80.0,47.0,30.07,WNW,303,7.0,10.0,31,0.04,,,-99.99,,2013-07-01 19:44:00,
2013-07-01 13:52:00,79.0,46.0,30.07,WSW,247,7.0,10.0,31,0.04,,,-99.99,,2013-07-01 19:52:00,
2013-07-01 14:01:00,79.0,45.0,30.06,NNW,344,6.0,14.0,30,0.04,,,-99.99,,2013-07-01 20:01:00,
2013-07-01 14:11:00,80.0,47.0,30.05,WNW,298,3.0,10.0,31,0.04,,,-99.99,,2013-07-01 20:11:00,
2013-07-01 14:22:00,81.0,45.0,30.05,West,260,9.0,9.0,28,0.04,,,-99.99,,2013-07-01 20:22:00,
2013-07-01 14:34:00,81.0,46.0,30.04,WNW,288,8.0,9.0,29,0.04,,,-99.99,,2013-07-01 20:34:00,
2013-07-01 14:43:00,82.0,44.0,30.04,NW,305,8.0,12.0,26,0.04,,,-99.99,,2013-07-01 20:43:00,
2013-07-01 14:52:00,82.0,44.0,30.03,SW,236,5.0,11.0,26,0.04,,,-99.99,,2013-07-01 20:52:00,
2013-07-01 15:01:00,81.0,43.0,30.03,SW,229,13.0,13.0,26,0.04,,,-99.99,,2013-07-01 21:01:00,
2013-07-01 15:11:00,81.0,44.0,30.03,WSW,239,10.0,15.0,27,0.04,,,-99.99,,2013-07-01 21:11:00,
2013-07-01 15:24:00,82.0,43.0,30.02,SSW,194,10.0,11.0,25,0.04,,,-99.99,,2013-07-01 21:24:00,
2013-07-01 15:34:00,82.0,44.0,30.02,West,261,8.0,13.0,26,0.04,,,-99.99,,2013-07-01 21:34:00,
2013-07-01 15:43:00,82.0,44.0,30.01,NNE,14,6.0,13.0,26,0.04,,,-99.99,,2013-07-01 21:43:00,
2013-07-01 15:53:00,82.0,43.0,30.01,WSW,246,10.0,11.0,25,0.04,,,-99.99,,2013-07-01 21:53:00,
2013-07-01 16:01:00,83.0,42.0,30.00,SW,220,7.0,8.0,24,0.04,,,-99.99,,2013-07-01 22:01:00,
2013-07-01 16:11:00,84.0,42.0,30.00,WSW,257,5.0,13.0,23,0.04,,,-99.99,,2013-07-01 22:11:00,
2013-07-01 16:33:00,85.0,42.0,29.99,WNW,282,6.0,10.0,22,0.04,,,-99.99,,2013-07-01 22:33:00,
2013-07-01 17:11:00,78.0,47.0,30.01,SSE,156,6.0,21.0,33,0.05,,,-99.99,,2013-07-01 23:11:00,
2013-07-01 17:22:00,80.0,48.0,30.02,East,94,6.0,9.0,33,0.05,,,-99.99,,2013-07-01 23:22:00,
2013-07-01 17:33:00,81.0,44.0,30.02,ENE,70,10.0,16.0,27,0.05,,,-99.99,,2013-07-01 23:33:00,
2013-07-01 17:44:00,80.0,45.0,30.02,ESE,118,12.0,17.0,29,0.05,,,-99.99,,2013-07-01 23:44:00,
2013-07-01 17:53:00,79.0,44.0,30.03,South,170,7.0,14.0,29,0.05,,,-99.99,,2013-07-01 23:53:00,
2013-07-01 18:01:00,78.0,44.0,30.03,SE,132,10.0,18.0,30,0.05,,,-99.99,,2013-07-02 00:01:00,
2013-07-01 18:12:00,77.0,42.0,30.03,ESE,119,16.0,17.0,29,0.05,,,-99.99,,2013-07-02 00:12:00,
2013-07-01 18:22:00,77.0,41.0,30.03,ESE,105,11.0,20.0,28,0.05,,,-99.99,,2013-07-02 00:22:00,
2013-07-01 18:53:00,77.0,43.0,30.03,East,99,22.0,32.0,30,0.05,,,-99.99,,2013-07-02 00:53:00,
2013-07-01 19:01:00,76.0,46.0,30.03,East,99,19.0,36.0,34,0.05,,,-99.99,,2013-07-02 01:01:00,
2013-07-01 19:11:00,75.0,44.0,30.05,East,90,25.0,35.0,33,0.05,,,-99.99,,2013-07-02 01:11:00,
2013-07-01 19:22:00,75.0,42.0,30.05,East,92,21.0,30.0,31,0.05,,,-99.99,,2013-07-02 01:22:00,
2013-07-01 19:33:00,74.0,42.0,30.05,East,92,24.0,33.0,32,0.05,,,-99.99,,2013-07-02 01:33:00,
2013-07-01 19:43:00,74.0,46.0,30.07,ENE,70,25.0,33.0,37,0.05,,,-99.99,,2013-07-02 01:43:00,
2013-07-01 19:53:00,73.0,48.0,30.06,ESE,108,24.0,32.0,41,0.05,,,-99.99,,2013-07-02 01:53:00,
2013-07-01 20:02:00,72.0,49.0,30.06,East,88,22.0,34.0,45,0.05,,,-99.99,,2013-07-02 02:02:00,
2013-07-01 20:11:00,72.0,49.0,30.07,East,90,21.0,23.0,45,0.05,,,-99.99,,2013-07-02 02:11:00,
2013-07-01 20:22:00,72.0,48.0,30.07,ENE,77,14.0,20.0,43,0.05,,,-99.99,,2013-07-02 02:22:00,
2013-07-01 20:33:00,71.0,49.0,30.08,ENE,73,21.0,26.0,46,0.05,,,-99.99,,2013-07-02 02:33:00,
2013-07-01 20:43:00,71.0,48.0,30.08,ENE,71,15.0,29.0,44,0.05,,,-99.99,,2013-07-02 02:43:00,
2013-07-01 20:53:00,71.0,47.0,30.08,East,94,23.0,33.0,42,0.05,,,-99.99,,2013-07-02 02:53:00,
2013-07-01 21:01:00,71.0,45.0,30.07,East,88,27.0,32.0,40,0.05,,,-99.99,,2013-07-02 03:01:00,
2013-07-01 21:12:00,71.0,45.0,30.08,East,81,19.0,31.0,39,0.05,,,-99.99,,2013-07-02 03:12:00,
2013-07-01 21:24:00,71.0,45.0,30.09,East,87,18.0,30.0,39,0.05,,,-99.99,,2013-07-02 03:24:00,
2013-07-01 21:32:00,71.0,44.0,30.10,East,81,15.0,29.0,38,0.05,,,-99.99,,2013-07-02 03:32:00,
2013-07-01 21:43:00,71.0,45.0,30.11,ENE,68,19.0,28.0,39,0.05,,,-99.99,,2013-07-02 03:43:00,
2013-07-01 22:02:00,70.0,46.0,30.11,East,80,21.0,34.0,42,0.05,,,-99.99,,2013-07-02 04:02:00,
2013-07-01 22:11:00,69.0,47.0,30.11,ENE,73,23.0,29.0,45,0.05,,,-99.99,,2013-07-02 04:11:00,
2013-07-01 22:22:00,68.0,46.0,30.12,East,88,16.0,33.0,46,0.05,,,-99.99,,2013-07-02 04:22:00,
2013-07-01 22:32:00,68.0,47.0,30.12,East,97,26.0,33.0,47,0.05,,,-99.99,,2013-07-02 04:32:00,
2013-07-01 22:42:00,68.0,45.0,30.14,ENE,77,14.0,25.0,44,0.05,,,-99.99,,2013-07-02 04:42:00,
2013-07-01 22:53:00,68.0,45.0,30.14,East,85,13.0,28.0,43,0.05,,,-99.99,,2013-07-02 04:53:00,
2013-07-01 23:01:00,68.0,43.0,30.13,East,91,26.0,28.0,41,0.05,,,-99.99,,2013-07-02 05:01:00,
2013-07-01 23:11:00,69.0,43.0,30.14,ENE,78,20.0,29.0,39,0.05,,,-99.99,,2013-07-02 05:11:00,
2013-07-01 23:22:00,69.0,43.0,30.15,East,92,18.0,32.0,39,0.05,,,-99.99,,2013-07-02 05:22:00,
2013-07-01 23:32:00,68.0,42.0,30.15,East,81,17.0,34.0,39,0.05,,,-99.99,,2013-07-02 05:32:00,
2013-07-01 23:43:00,69.0,42.0,30.16,East,94,18.0,31.0,38,0.05,,,-99.99,,2013-07-02 05:43:00,
2013-07-01 23:53:00,68.0,41.0,30.17,ENE,74,21.0,26.0,38,0.05,,,-99.99,,2013-07-02 05:53:00,